Regional Weather Roundup
Issued by NWS

Home | Current Version | Previous Version | Graphics & Text | Print | Product List | Glossary On
Versions: 1 2 3 4 5 6 7 8 9 10 11 12 13 14 15 16 17 18 19 20 21 22 23 24 25 26 27 28 29 30 31 32 33 34 35 36 37 38 39 40 41 42 43 44 45 46 47 48 49 50
000
ASUS43 KLOT 210408
RWRIL

ILLINOIS REGIONAL WEATHER ROUNDUP
NATIONAL WEATHER SERVICE CHICAGO/ROMEOVILLE IL
1100 PM CDT FRI APR 20 2018

NOTE: "FAIR" INDICATES FEW OR NO CLOUDS BELOW 12,000 FEET WITH NO
SIGNIFICANT WEATHER AND/OR OBSTRUCTIONS TO VISIBILITY.

* THESE STATIONS ARE NOT UNDER NWS QUALITY CONTROL. THEY ALSO MAY NOT
  REPORT WEATHER SUCH AS PRECIPITATION OR FOG.

ILZ001-002-007-009-015-016-024-210500-
NORTHWEST ILLINOIS

CITY           SKY/WX    TMP DP  RH WIND       PRES   REMARKS
MOLINE         FAIR      44  30  57 E3        30.39F
STERLING*      FAIR      46  33  60 CALM      30.42S HAZE
SAVANNA*       FAIR      45  32  61 NE3       30.41F
$$

ILZ003-004-008-010-011-017-018-210500-
NORTH CENTRAL ILLINOIS

CITY           SKY/WX    TMP DP  RH WIND       PRES   REMARKS
ROCKFORD       CLOUDY    45  23  42 SE5       30.45S
FREEPORT*      FAIR      40  31  70 CALM      30.44F
ROCHELLE*      FAIR      40  28  62 E8        30.44S
DE KALB*       FAIR      42  20  41 E6        30.44S
PERU*          FAIR      49  25  39 E6        30.43R
$$

ILZ005-006-012>014-019>023-210500-
NORTHEAST ILLINOIS

CITY           SKY/WX    TMP DP  RH WIND       PRES   REMARKS
CHICAGO-OHARE  MOCLDY    46  14  27 E3        30.43F
CHICAGO-MIDWAY MOCLDY    47  16  29 E5        30.44F
AURORA         FAIR      41  22  46 NE6       30.43S
LANSING*       FAIR      41  25  53 CALM      30.44F
JOLIET*        FAIR      48  15  27 NE5       30.43S
WAUKEGAN       FAIR      31  23  72 CALM      30.44S
DUPAGE AIRPORT FAIR      43  16  33 CALM      30.43S
KANKAKEE*      FAIR      43  21  41 E5        30.43F
WHEELING       FAIR      42  20  41 CALM      30.46F
MORRIS*        FAIR      43  23  44 NE3       30.43S
ROMEOVILLE*    FAIR      41  19  42 NE8       30.43S
NORTHERLY ISL    N/A     42  22  45 N1          N/A
$$

LMZ740>746-210500-
SOUTHERN LAKE MICHIGAN

STATION/POSITION SKY/WX   TEMP    WIND        PRES    VSBY  WAVE
                          AIR SEA DIR/SP/G                  HT/PER
                          (F)     (DEG/KT/KT) (MB)    (MI)  (FT/S)
HARRISON CRIB              43      50/  1/  1   N/A
BURNHAM HARBOR             41      60/  1/  2   N/A
CALUMET HARBOR             38      30/  2/  3 1030.2F
BURNS HARBOR               44      80/  7/  8 1031.2S
MICHIGAN CITY              43      70/  5/  6   N/A
$$

ILZ025>027-034>036-040-047-049-050-058-095>099-210500-
WEST-CENTRAL ILLINOIS

CITY           SKY/WX    TMP DP  RH WIND       PRES   REMARKS
QUINCY         CLOUDY    51  20  29 E6        30.37S
GALESBURG*     FAIR      51  29  42 E3        30.40F
MACOMB*        PTCLDY    45  26  47 NE3       30.41S
JACKSONVILLE*  CLOUDY    41  26  55 E8        30.38F
PITTSFIELD*    MOCLDY    49  23  35 CALM      30.39R
$$

ILZ028>032-037-038-041>044-048-051>054-059>061-210500-
CENTRAL ILLINOIS

CITY           SKY/WX    TMP DP  RH WIND       PRES   REMARKS
PONTIAC        FAIR      44  27  52 E8        30.43S
BLOOMINGTON    FAIR      45  26  47 E8        30.42R
DECATUR        FAIR      41  27  57 E3        30.40R
PEORIA         FAIR      52  23  32 E6        30.40S
LACON*         FAIR      47  26  43 E8        30.41R
LINCOLN*       FAIR      44  31  60 NE3       30.40F
SPRINGFIELD    FAIR      49  25  39 E6        30.39S
TAYLORVILLE    FAIR      50  23  34 E8        30.39R
$$

ILZ033-039-045-046-055>057-062-063-210500-
EAST-CENTRAL ILLINOIS

CITY           SKY/WX    TMP DP  RH WIND       PRES   REMARKS
CHAMPAIGN      FAIR      44  25  47 NE8       30.40F
DANVILLE*      FAIR      42  28  57 NE5       30.39S
RANTOUL*       FAIR      48  29  47 NE8       30.41S
MATTOON        FAIR      44  29  55 E8        30.38F
PARIS*         FAIR      46  26  46 NE5       30.41S
$$

ILZ079-100>102-210500-
SOUTHWEST ILLINOIS

CITY           SKY/WX    TMP DP  RH WIND       PRES   REMARKS
ALTON          CLOUDY    44  27  52 CALM      30.37S
BELLEVILLE     CLOUDY    49  29  46 CALM      30.35R
CAHOKIA*       CLOUDY    46  27  47 NE3       30.36R
SPARTA*        CLOUDY    47  33  58 CALM      30.36S
$$

ILZ064>066-069>071-074>076-080>082-084>086-088>090-092>094-210500-
SOUTH-CENTRAL ILLINOIS

CITY           SKY/WX    TMP DP  RH WIND       PRES   REMARKS
CARBONDALE     FAIR      50  29  44 NE6       30.34S
CAIRO*         FAIR      52  32  46 N6        30.33R
EFFINGHAM*     FAIR      49  30  47 NE3       30.39S
MARION         FAIR      41  32  70 N5        30.35S
MT. VERNON     FAIR      38  35  89 N5        30.36S WCI  34
CENTRALIA*     PTCLDY    47  33  56 NE3       30.36S
SALEM*         FAIR      53  23  31 E5        30.36F
METROPOLIS*    FAIR      52  30  42 CALM      30.33S
$$

ILZ067-068-072-073-078-083-087-091-210500-
SOUTHEAST ILLINOIS

CITY           SKY/WX    TMP DP  RH WIND       PRES   REMARKS
LAWRENCEVILLE  FAIR      48  29  47 NE8       30.38S
FLORA*         FAIR      51  26  37 NE5       30.37F
FAIRFIELD*     FAIR      49  26  41 N3        30.35S
HARRISBURG*    FAIR      49  32  51 N6        30.35S
ROBINSON*      FAIR      44  28  54 E3        30.40S
CARMI*         FAIR      44  35  71 NE5       30.35S
$$

ABBREVIATIONS USED IN REMARKS
   TC - TEMPERATURE IN CELSIUS
  WCI - WIND CHILL INDEX
   HX - HEAT INDEX
  VSB - VISIBILITY
$$




USA.gov is the U.S. government's official web portal to all federal, state and local government web resources and services.